Year,Month,Day,Hour,Minute,Value (Times are PST for temperature in C)
2016,08,20,08,11,16.30
2016,08,20,08,12,16.40
2016,08,20,08,13,16.50
2016,08,20,08,14,16.60
2016,08,20,08,15,16.60
2016,08,20,08,16,16.70
2016,08,20,08,17,16.90
2016,08,20,08,18,17.00
2016,08,20,08,19,17.10
2016,08,20,08,20,17.20
2016,08,20,08,21,17.30
2016,08,20,08,22,17.40
2016,08,20,08,23,17.60
2016,08,20,08,24,17.70
2016,08,20,08,25,17.90
2016,08,20,08,26,18.10
2016,08,20,08,27,18.20
2016,08,20,08,28,18.40
2016,08,20,08,29,18.60
2016,08,20,08,30,18.70
2016,08,20,08,31,18.90
2016,08,20,08,32,19.10
2016,08,20,08,33,19.20
2016,08,20,08,34,19.40
2016,08,20,08,35,19.50
2016,08,20,08,36,19.60
2016,08,20,08,37,19.70
2016,08,20,08,38,19.80
2016,08,20,08,39,19.90
2016,08,20,08,40,20.00
2016,08,20,08,41,20.10
2016,08,20,08,42,20.20
2016,08,20,08,43,20.30
2016,08,20,08,44,20.50
2016,08,20,08,45,20.60
2016,08,20,08,46,20.70
2016,08,20,08,47,20.80
2016,08,20,08,48,20.90
2016,08,20,08,49,21.10
2016,08,20,08,50,21.20
2016,08,20,08,51,21.30
2016,08,20,08,52,21.40
2016,08,20,08,53,21.50
2016,08,20,08,54,21.60
2016,08,20,08,55,21.60
2016,08,20,08,56,21.70
2016,08,20,08,57,21.70
2016,08,20,08,58,21.80
2016,08,20,08,59,21.90
2016,08,20,09,00,21.90
2016,08,20,09,01,21.90
2016,08,20,09,02,22.00
2016,08,20,09,03,22.00
2016,08,20,09,04,22.10
2016,08,20,09,05,22.10
2016,08,20,09,06,22.10
2016,08,20,09,07,22.20
2016,08,20,09,08,22.20
2016,08,20,09,09,22.20
2016,08,20,09,10,22.10
2016,08,20,09,11,22.10
2016,08,20,09,12,22.10
2016,08,20,09,13,22.10
2016,08,20,09,14,22.10
2016,08,20,09,15,22.10
2016,08,20,09,16,22.00
2016,08,20,09,17,22.00
2016,08,20,09,18,22.00
2016,08,20,09,19,22.00
2016,08,20,09,20,22.10
2016,08,20,09,21,22.10
2016,08,20,09,22,22.10
2016,08,20,09,23,22.10
2016,08,20,09,24,22.20
2016,08,20,09,25,22.20
2016,08,20,09,26,22.20
2016,08,20,09,27,22.30
2016,08,20,09,28,22.30
2016,08,20,09,29,22.30
2016,08,20,09,30,22.30
2016,08,20,09,31,22.30
2016,08,20,09,32,22.30
2016,08,20,09,33,22.30
2016,08,20,09,34,22.30
2016,08,20,09,35,22.40
2016,08,20,09,36,22.40
2016,08,20,09,37,22.40
2016,08,20,09,38,22.40
2016,08,20,09,39,22.40
2016,08,20,09,40,22.30
2016,08,20,09,41,22.30
2016,08,20,09,42,22.20
2016,08,20,09,43,22.10
2016,08,20,09,44,22.00
2016,08,20,09,45,22.00
2016,08,20,09,46,21.90
2016,08,20,09,47,21.90
2016,08,20,09,48,21.90
2016,08,20,09,49,21.80
2016,08,20,09,50,21.80
2016,08,20,09,51,21.80
2016,08,20,09,52,21.80
2016,08,20,09,53,21.80
2016,08,20,09,54,21.80
2016,08,20,09,55,21.80
2016,08,20,09,56,21.80
2016,08,20,09,57,21.80
2016,08,20,09,58,21.90
2016,08,20,09,59,21.90
2016,08,20,10,00,22.00
2016,08,20,10,01,22.10
2016,08,20,10,02,22.20
2016,08,20,10,03,22.20
2016,08,20,10,04,22.20
2016,08,20,10,05,22.30
2016,08,20,10,06,22.30
2016,08,20,10,07,22.30
2016,08,20,10,08,22.30
2016,08,20,10,09,22.30
2016,08,20,10,10,22.30
2016,08,20,10,11,22.30
2016,08,20,10,12,22.30
2016,08,20,10,13,22.30
2016,08,20,10,14,22.30
2016,08,20,10,15,22.30
2016,08,20,10,16,22.30
2016,08,20,10,17,22.30
2016,08,20,10,18,22.30
2016,08,20,10,19,22.30
2016,08,20,10,20,22.30
2016,08,20,10,21,22.30
2016,08,20,10,22,22.40
2016,08,20,10,23,22.40
2016,08,20,10,24,22.50
2016,08,20,10,25,22.50
2016,08,20,10,26,22.60
2016,08,20,10,27,22.60
2016,08,20,10,28,22.60
2016,08,20,10,29,22.60
2016,08,20,10,30,22.60
2016,08,20,10,31,22.60
2016,08,20,10,32,22.60
2016,08,20,10,33,22.60
2016,08,20,10,34,22.60
2016,08,20,10,35,22.60
2016,08,20,10,36,22.60
2016,08,20,10,37,22.60
2016,08,20,10,38,22.60
2016,08,20,10,39,22.60
2016,08,20,10,40,22.60
2016,08,20,10,41,22.60
2016,08,20,10,42,22.60
2016,08,20,10,43,22.60
2016,08,20,10,44,22.60
2016,08,20,10,45,22.60
2016,08,20,10,46,22.60
2016,08,20,10,47,22.60
2016,08,20,10,48,22.60
2016,08,20,10,49,22.60
2016,08,20,10,50,22.60
2016,08,20,10,51,22.60
2016,08,20,10,52,22.60
2016,08,20,10,53,22.50
2016,08,20,10,54,22.50
2016,08,20,10,55,22.50
2016,08,20,10,56,22.50
2016,08,20,10,57,22.50
2016,08,20,10,58,22.40
2016,08,20,10,59,22.40
2016,08,20,11,00,22.30
2016,08,20,11,01,22.30
2016,08,20,11,02,22.20
2016,08,20,11,03,22.10
2016,08,20,11,04,22.10
2016,08,20,11,05,22.10
2016,08,20,11,06,22.10
2016,08,20,11,07,22.20
2016,08,20,11,08,22.20
2016,08,20,11,09,22.20
2016,08,20,11,10,22.30
2016,08,20,11,11,22.30
2016,08,20,11,12,22.30
2016,08,20,11,13,22.30
2016,08,20,11,14,22.40
2016,08,20,11,15,22.50
2016,08,20,11,16,22.60
2016,08,20,11,17,22.70
2016,08,20,11,18,22.70
2016,08,20,11,19,22.80
2016,08,20,11,20,22.90
2016,08,20,11,21,22.90
2016,08,20,11,22,23.00
2016,08,20,11,23,23.00
2016,08,20,11,24,23.00
2016,08,20,11,25,23.10
2016,08,20,11,26,23.10
2016,08,20,11,27,23.10
2016,08,20,11,28,23.20
2016,08,20,11,29,23.20
2016,08,20,11,30,23.20
2016,08,20,11,31,23.30
2016,08,20,11,32,23.30
2016,08,20,11,33,23.30
2016,08,20,11,34,23.30
2016,08,20,11,35,23.30
2016,08,20,11,36,23.30
2016,08,20,11,37,23.30
2016,08,20,11,38,23.40
2016,08,20,11,39,23.40
2016,08,20,11,40,23.40
2016,08,20,11,41,23.30
2016,08,20,11,42,23.30
2016,08,20,11,43,23.30
2016,08,20,11,44,23.20
2016,08,20,11,45,23.20
2016,08,20,11,46,23.20
2016,08,20,11,47,23.20
2016,08,20,11,48,23.30
2016,08,20,11,49,23.30
2016,08,20,11,50,23.30
2016,08,20,11,51,23.20
2016,08,20,11,52,23.20
2016,08,20,11,53,23.20
2016,08,20,11,54,23.20
2016,08,20,11,55,23.20
2016,08,20,11,56,23.20
2016,08,20,11,57,23.30
2016,08,20,11,58,23.30
2016,08,20,11,59,23.40
2016,08,20,12,00,23.40
2016,08,20,12,01,23.50
2016,08,20,12,02,23.50
2016,08,20,12,03,23.60
2016,08,20,12,04,23.70
2016,08,20,12,05,23.70
2016,08,20,12,06,23.80
2016,08,20,12,07,23.80
2016,08,20,12,08,23.90
2016,08,20,12,09,23.90
2016,08,20,12,10,23.90
2016,08,20,12,11,24.00
2016,08,20,12,12,24.00
2016,08,20,12,13,24.10
2016,08,20,12,14,24.20
2016,08,20,12,15,24.10
2016,08,20,12,16,24.00
2016,08,20,12,17,23.90
2016,08,20,12,18,23.90
2016,08,20,12,19,23.80
2016,08,20,12,20,23.80
2016,08,20,12,21,23.70
2016,08,20,12,22,23.70
2016,08,20,12,23,23.70
2016,08,20,12,24,23.70
2016,08,20,12,25,23.70
2016,08,20,12,26,23.80
2016,08,20,12,27,23.80
2016,08,20,12,28,23.90
2016,08,20,12,29,23.90
2016,08,20,12,30,23.90
2016,08,20,12,31,24.00
2016,08,20,12,32,24.00
2016,08,20,12,33,24.10
2016,08,20,12,34,24.00
2016,08,20,12,35,24.00
2016,08,20,12,36,23.90
2016,08,20,12,37,23.90
2016,08,20,12,38,23.80
2016,08,20,12,39,23.90
2016,08,20,12,40,23.90
2016,08,20,12,41,24.00
2016,08,20,12,42,24.00
2016,08,20,12,43,24.00
2016,08,20,12,44,24.00
2016,08,20,12,45,24.10
2016,08,20,12,46,24.10
2016,08,20,12,47,24.10
2016,08,20,12,48,24.10
2016,08,20,12,49,24.20
2016,08,20,12,50,24.20
2016,08,20,12,51,24.20
2016,08,20,12,52,24.30
2016,08,20,12,53,24.30
2016,08,20,12,54,24.30
2016,08,20,12,55,24.30
2016,08,20,12,56,24.30
2016,08,20,12,57,24.30
2016,08,20,12,58,24.40
2016,08,20,12,59,24.40
2016,08,20,13,00,24.40
2016,08,20,13,01,24.50
2016,08,20,13,02,24.50
2016,08,20,13,03,24.50
2016,08,20,13,04,24.50
2016,08,20,13,05,24.60
2016,08,20,13,06,24.60
2016,08,20,13,07,24.60
2016,08,20,13,08,24.70
2016,08,20,13,09,24.80
2016,08,20,13,10,24.90
2016,08,20,13,11,24.90
2016,08,20,13,12,25.00
2016,08,20,13,13,25.00
2016,08,20,13,14,25.00
2016,08,20,13,15,25.00
2016,08,20,13,16,25.10
2016,08,20,13,17,25.10
2016,08,20,13,18,25.10
2016,08,20,13,19,25.10
2016,08,20,13,20,25.20
2016,08,20,13,21,25.20
2016,08,20,13,22,25.20
2016,08,20,13,23,25.30
2016,08,20,13,24,25.40
2016,08,20,13,25,25.40
2016,08,20,13,26,25.40
2016,08,20,13,27,25.40
2016,08,20,13,28,25.40
2016,08,20,13,29,25.40
2016,08,20,13,30,25.40
2016,08,20,13,31,25.30
2016,08,20,13,32,25.30
2016,08,20,13,33,25.30
2016,08,20,13,34,25.30
2016,08,20,13,35,25.30
2016,08,20,13,36,25.30
2016,08,20,13,37,25.30
2016,08,20,13,38,25.30
2016,08,20,13,39,25.30
2016,08,20,13,40,25.40
2016,08,20,13,41,25.40
2016,08,20,13,42,25.40
2016,08,20,13,43,25.30
2016,08,20,13,44,25.30
2016,08,20,13,45,25.30
2016,08,20,13,46,25.30
2016,08,20,13,47,25.40
2016,08,20,13,48,25.50
2016,08,20,13,49,25.50
2016,08,20,13,50,25.60
2016,08,20,13,51,25.70
2016,08,20,13,52,25.70
2016,08,20,13,53,25.80
2016,08,20,13,54,25.80
2016,08,20,13,55,25.70
2016,08,20,13,56,25.60
2016,08,20,13,57,25.60
2016,08,20,13,58,25.50
2016,08,20,13,59,25.50
2016,08,20,14,00,25.40
2016,08,20,14,01,25.40
2016,08,20,14,02,25.30
2016,08,20,14,03,25.20
2016,08,20,14,04,25.00
2016,08,20,14,05,24.80
2016,08,20,14,06,24.70
2016,08,20,14,07,24.60
2016,08,20,14,08,24.60
2016,08,20,14,09,24.60
2016,08,20,14,10,24.60
2016,08,20,14,11,24.60
2016,08,20,14,12,24.60
2016,08,20,14,13,24.70
2016,08,20,14,14,24.70
2016,08,20,14,15,24.80
2016,08,20,14,16,24.80
2016,08,20,14,17,24.90
2016,08,20,14,18,24.90
2016,08,20,14,19,25.00
2016,08,20,14,20,25.10
2016,08,20,14,21,25.10
2016,08,20,14,22,25.20
2016,08,20,14,23,25.20
2016,08,20,14,24,25.30
2016,08,20,14,25,25.30
2016,08,20,14,26,25.30
2016,08,20,14,27,25.30
2016,08,20,14,28,25.30
2016,08,20,14,29,25.30
2016,08,20,14,30,25.30
2016,08,20,14,31,25.30
2016,08,20,14,32,25.40
2016,08,20,14,33,25.50
2016,08,20,14,34,25.50
2016,08,20,14,35,25.40
2016,08,20,14,36,25.30
2016,08,20,14,37,25.20
2016,08,20,14,38,25.10
2016,08,20,14,39,25.10
2016,08,20,14,40,25.10
2016,08,20,14,41,25.10
2016,08,20,14,42,25.10
2016,08,20,14,43,25.10
2016,08,20,14,44,25.20
2016,08,20,14,45,25.30
2016,08,20,14,46,25.30
2016,08,20,14,47,25.30
2016,08,20,14,48,25.30
2016,08,20,14,49,25.30
2016,08,20,14,50,25.30
2016,08,20,14,51,25.30
2016,08,20,14,52,25.20
2016,08,20,14,53,25.20
2016,08,20,14,54,25.20
2016,08,20,14,55,25.20
2016,08,20,14,56,25.30
2016,08,20,14,57,25.30
2016,08,20,14,58,25.40
2016,08,20,14,59,25.40
2016,08,20,15,00,25.50
2016,08,20,15,01,25.50
2016,08,20,15,02,25.60
2016,08,20,15,03,25.60
2016,08,20,15,04,25.60
2016,08,20,15,05,25.60
2016,08,20,15,06,25.60
2016,08,20,15,07,25.70
2016,08,20,15,08,25.70
2016,08,20,15,09,25.70
2016,08,20,15,10,25.70
2016,08,20,15,11,25.70
2016,08,20,15,12,25.70
2016,08,20,15,13,25.60
2016,08,20,15,14,25.60
2016,08,20,15,15,25.50
2016,08,20,15,16,25.40
2016,08,20,15,17,25.40
2016,08,20,15,18,25.50
2016,08,20,15,19,25.50
2016,08,20,15,20,25.60
2016,08,20,15,21,25.60
2016,08,20,15,22,25.60
2016,08,20,15,23,25.60
2016,08,20,15,24,25.60
2016,08,20,15,25,25.60
2016,08,20,15,26,25.60
2016,08,20,15,27,25.60
2016,08,20,15,28,25.50
2016,08,20,15,29,25.50
2016,08,20,15,30,25.40
2016,08,20,15,31,25.30
2016,08,20,15,32,25.30
2016,08,20,15,33,25.20
2016,08,20,15,34,25.20
2016,08,20,15,35,25.20
2016,08,20,15,36,25.20
2016,08,20,15,37,25.20
2016,08,20,15,38,25.30
2016,08,20,15,39,25.30
2016,08,20,15,40,25.40
2016,08,20,15,41,25.60
2016,08,20,15,42,25.70
2016,08,20,15,43,25.70
2016,08,20,15,44,25.70
2016,08,20,15,45,25.80
2016,08,20,15,46,25.70
2016,08,20,15,47,25.70
2016,08,20,15,48,25.70
2016,08,20,15,49,25.70
2016,08,20,15,50,25.70
2016,08,20,15,51,25.70
2016,08,20,15,52,25.70
2016,08,20,15,53,25.80
2016,08,20,15,54,25.80
2016,08,20,15,55,25.90
2016,08,20,15,56,26.00
2016,08,20,15,57,26.10
2016,08,20,15,58,26.10
2016,08,20,15,59,26.10
2016,08,20,16,00,26.00
2016,08,20,16,01,26.00
2016,08,20,16,02,26.10
2016,08,20,16,03,26.10
2016,08,20,16,04,26.10
2016,08,20,16,05,26.20
2016,08,20,16,06,26.20
2016,08,20,16,07,26.20
2016,08,20,16,08,26.30
2016,08,20,16,09,26.30
2016,08,20,16,10,26.40
2016,08,20,16,11,26.50
2016,08,20,16,12,26.60
2016,08,20,16,13,26.60
2016,08,20,16,14,26.70
2016,08,20,16,15,26.70
2016,08,20,16,16,26.70
2016,08,20,16,17,26.80
2016,08,20,16,18,26.80
2016,08,20,16,19,26.90
2016,08,20,16,20,26.90
2016,08,20,16,21,27.00
2016,08,20,16,22,27.00
2016,08,20,16,23,27.10
2016,08,20,16,24,27.10
2016,08,20,16,25,27.10
2016,08,20,16,26,27.10
2016,08,20,16,27,27.10
2016,08,20,16,28,27.10
2016,08,20,16,29,27.10
2016,08,20,16,30,27.10
2016,08,20,16,31,27.10
2016,08,20,16,32,27.10
2016,08,20,16,33,27.10
2016,08,20,16,34,27.10
2016,08,20,16,35,27.20
2016,08,20,16,36,27.20
2016,08,20,16,37,27.20
2016,08,20,16,38,27.20
2016,08,20,16,39,27.20
2016,08,20,16,40,27.20
2016,08,20,16,41,27.20
2016,08,20,16,42,27.20
2016,08,20,16,43,27.20
2016,08,20,16,44,27.20
2016,08,20,16,45,27.20
2016,08,20,16,46,27.20
2016,08,20,16,47,27.20
2016,08,20,16,48,27.20
2016,08,20,16,49,27.20
2016,08,20,16,50,27.20
2016,08,20,16,51,27.20
2016,08,20,16,52,27.20
2016,08,20,16,53,27.20
2016,08,20,16,54,27.20
2016,08,20,16,55,27.30
2016,08,20,16,56,27.30
2016,08,20,16,57,27.30
2016,08,20,16,58,27.30
2016,08,20,16,59,27.30
2016,08,20,17,00,27.30
2016,08,20,17,01,27.30
2016,08,20,17,02,27.30
2016,08,20,17,03,27.20
2016,08,20,17,04,27.10
2016,08,20,17,05,27.10
2016,08,20,17,06,27.00
2016,08,20,17,07,26.90
2016,08,20,17,08,26.90
2016,08,20,17,09,26.80
2016,08,20,17,10,26.80
2016,08,20,17,11,26.80
2016,08,20,17,12,26.80
2016,08,20,17,13,26.80
2016,08,20,17,14,26.80
2016,08,20,17,15,26.80
2016,08,20,17,16,26.90
2016,08,20,17,17,26.90
2016,08,20,17,18,26.90
2016,08,20,17,19,26.90
2016,08,20,17,20,26.90
2016,08,20,17,21,26.90
2016,08,20,17,22,26.90
2016,08,20,17,23,26.80
2016,08,20,17,24,26.80
2016,08,20,17,25,26.80
2016,08,20,17,26,26.80
2016,08,20,17,27,26.70
2016,08,20,17,28,26.70
2016,08,20,17,29,26.60
2016,08,20,17,30,26.60
2016,08,20,17,31,26.50
2016,08,20,17,32,26.50
2016,08,20,17,33,26.40
2016,08,20,17,34,26.40
2016,08,20,17,35,26.40
2016,08,20,17,36,26.40
2016,08,20,17,37,26.40
2016,08,20,17,38,26.40
2016,08,20,17,39,26.40
2016,08,20,17,40,26.40
2016,08,20,17,41,26.40
2016,08,20,17,42,26.40
2016,08,20,17,43,26.40
2016,08,20,17,44,26.40
2016,08,20,17,45,26.40
2016,08,20,17,46,26.40
2016,08,20,17,47,26.40
2016,08,20,17,48,26.40
2016,08,20,17,49,26.40
2016,08,20,17,50,26.40
2016,08,20,17,51,26.50
2016,08,20,17,52,26.50
2016,08,20,17,53,26.50
2016,08,20,17,54,26.60
2016,08,20,17,55,26.60
2016,08,20,17,56,26.50
2016,08,20,17,57,26.50
2016,08,20,17,58,26.50
2016,08,20,17,59,26.50
2016,08,20,18,00,26.50
2016,08,20,18,01,26.50
2016,08,20,18,02,26.40
2016,08,20,18,03,26.40
2016,08,20,18,04,26.40
2016,08,20,18,05,26.40
2016,08,20,18,06,26.40
2016,08,20,18,07,26.40
2016,08,20,18,08,26.30
2016,08,20,18,09,26.30
2016,08,20,18,10,26.20
2016,08,20,18,11,26.20
2016,08,20,18,12,26.10
2016,08,20,18,13,26.10
2016,08,20,18,14,26.10
2016,08,20,18,15,26.10
2016,08,20,18,16,26.00
2016,08,20,18,17,26.00
2016,08,20,18,18,26.00
2016,08,20,18,19,25.90
2016,08,20,18,20,25.90
2016,08,20,18,21,25.90
2016,08,20,18,22,25.90
2016,08,20,18,23,25.90
2016,08,20,18,24,25.90
2016,08,20,18,25,25.90
2016,08,20,18,26,25.90
2016,08,20,18,27,25.90
2016,08,20,18,28,25.90
2016,08,20,18,29,25.90
2016,08,20,18,30,25.80
2016,08,20,18,31,25.80
2016,08,20,18,32,25.80
2016,08,20,18,33,25.80
2016,08,20,18,34,25.80
2016,08,20,18,35,25.80
2016,08,20,18,36,25.80
2016,08,20,18,37,25.80
2016,08,20,18,38,25.80
2016,08,20,18,39,25.80
2016,08,20,18,40,25.80
2016,08,20,18,41,25.80
2016,08,20,18,42,25.80
